Terminal Aerodrome Forecast
Issued by NWS Glasgow, MT

Home | Current Version | Previous Version | Text Only | Print | Product List | Glossary On
Versions: 1 2 3 4 5 6 7 8 9 10 11 12 13 14 15
000
FTUS45 KGGW 242300
TAFGGW
TAF
KGGW 242320Z 2500/2524 28013KT P6SM BKN100
     FM250200 VRB06KT P6SM BKN080
     FM251200 VRB06KT P6SM SCT250=

USA.gov is the U.S. government's official web portal to all federal, state and local government web resources and services.